Total_Precipitation_Accumulation
0.81 0.60 0.98 1.00 0.86 0.76 0.74 0.76 0.75 0.76 0.77 0.70 0.63 0.54 0.43 0.39 0.33 0.33 0.33 0.31 0.30 0.29 0.30 0.33 0.34 0.35 0.31 0.32 0.38 0.45 0.54 0.59 0.51 0.46 0.49 0.50 0.48 0.60 0.83 0.98 1.03 1.15 1.02
0.60 0.54 0.95 1.01 0.87 0.75 0.75 0.80 0.78 0.77 0.74 0.69 0.64 0.55 0.50 0.42 0.39 0.37 0.31 0.31 0.29 0.28 0.29 0.30 0.35 0.35 0.32 0.35 0.42 0.50 0.57 0.61 0.57 0.57 0.70 0.78 0.70 0.73 0.83 0.95 1.01 1.07 0.96
0.61 0.56 0.70 0.94 0.93 0.85 0.79 0.78 0.78 0.79 0.78 0.79 0.73 0.62 0.56 0.47 0.41 0.37 0.32 0.30 0.30 0.31 0.34 0.36 0.38 0.35 0.35 0.40 0.46 0.53 0.56 0.64 0.71 0.78 1.05 1.44 1.07 0.79 0.77 0.85 0.79 0.79 0.84
0.58 0.59 0.73 1.01 1.02 0.96 0.90 0.90 0.90 0.85 0.78 0.80 0.75 0.67 0.59 0.54 0.47 0.48 0.46 0.36 0.33 0.34 0.36 0.35 0.34 0.36 0.41 0.47 0.50 0.49 0.52 0.67 0.83 0.85 1.05 1.34 1.30 0.97 0.92 0.99 0.91 0.86 0.87
0.60 0.59 0.81 1.08 0.99 0.94 0.98 1.08 1.06 0.99 0.87 0.80 0.78 0.75 0.69 0.63 0.62 0.66 0.55 0.48 0.45 0.44 0.45 0.48 0.45 0.44 0.52 0.57 0.55 0.52 0.60 0.77 0.87 0.79 0.91 1.12 1.54 1.30 1.01 1.09 1.08 0.92 0.86
0.49 0.50 0.76 1.11 1.02 0.95 0.99 1.13 1.05 0.97 0.96 0.88 0.86 0.85 0.83 0.78 0.77 0.75 0.70 0.67 0.61 0.58 0.57 0.59 0.58 0.56 0.60 0.60 0.58 0.63 0.77 0.86 0.81 0.96 1.03 1.11 1.45 1.33 1.02 0.99 0.94 0.89 0.89
0.51 0.49 0.64 0.99 0.98 0.89 0.92 1.02 1.00 0.98 1.03 0.94 0.88 0.90 0.89 0.88 0.89 0.91 0.88 0.79 0.77 0.74 0.72 0.70 0.64 0.56 0.56 0.61 0.63 0.70 0.84 0.79 0.80 1.07 1.05 1.23 1.28 1.18 0.97 0.92 0.87 0.92 1.02
0.63 0.50 0.53 0.80 0.84 0.83 0.91 0.95 0.99 0.97 0.94 0.85 0.85 0.90 0.91 0.90 0.94 0.97 0.97 0.88 0.85 0.83 0.84 0.82 0.78 0.67 0.61 0.64 0.68 0.70 0.79 0.71 0.61 0.85 0.98 1.20 1.30 1.26 0.96 0.88 0.93 0.94 1.12
0.95 0.78 0.67 0.65 0.65 0.74 0.89 0.93 1.09 1.12 0.96 0.83 0.81 0.80 0.79 0.80 0.84 0.89 0.91 0.86 0.82 0.85 0.85 0.84 0.80 0.75 0.73 0.72 0.69 0.69 0.75 0.73 0.69 0.77 0.79 1.10 1.25 1.23 1.00 0.89 0.89 0.94 1.16
0.92 0.89 0.84 0.83 0.79 0.79 0.82 0.98 1.26 1.38 1.21 0.94 0.83 0.78 0.79 0.74 0.73 0.81 0.77 0.79 0.81 0.89 0.92 0.92 0.88 0.81 0.83 0.83 0.80 0.76 0.77 0.63 0.53 0.59 0.71 0.88 1.18 1.18 1.05 0.88 0.79 0.79 0.96
0.85 0.86 0.83 0.86 0.90 1.01 1.02 1.07 1.33 1.49 1.46 1.09 0.89 0.87 0.77 0.61 0.74 0.78 0.64 0.78 0.85 0.96 0.99 1.02 0.95 0.88 0.93 0.91 0.87 0.89 0.72 0.48 0.50 0.57 0.72 0.88 1.20 1.30 1.13 0.88 0.78 0.76 0.73
0.72 0.72 0.73 0.75 0.75 0.80 0.86 1.18 1.39 1.31 1.38 1.11 1.05 0.97 0.88 0.89 0.92 0.79 0.69 0.81 0.96 1.06 1.03 1.03 1.04 0.98 0.88 0.71 0.68 0.72 0.51 0.40 0.43 0.49 0.60 0.86 1.26 1.45 1.25 0.97 0.80 0.74 0.65
0.57 0.51 0.48 0.52 0.53 0.58 0.68 0.85 1.13 1.39 1.44 1.40 1.34 1.25 1.17 1.06 0.88 0.78 0.76 0.76 0.86 0.95 0.89 0.96 0.95 0.83 0.75 0.67 0.66 0.59 0.48 0.43 0.46 0.46 0.62 0.84 1.17 1.40 1.27 1.00 0.78 0.70 0.70
0.57 0.57 0.48 0.42 0.46 0.46 0.50 0.64 0.88 1.11 1.26 1.28 1.19 1.10 1.27 1.20 0.96 0.85 0.93 0.93 0.90 0.94 1.03 1.05 0.98 0.90 0.81 0.73 0.72 0.63 0.58 0.57 0.54 0.54 0.72 0.72 0.93 1.17 1.29 1.14 0.92 0.76 0.76
0.57 0.62 0.56 0.43 0.37 0.42 0.45 0.51 0.60 0.84 1.00 1.00 1.13 1.09 1.13 1.11 0.97 0.88 0.88 1.02 0.98 0.97 1.07 1.16 1.03 0.94 0.94 0.91 0.86 0.81 0.76 0.70 0.69 0.60 0.65 0.68 0.77 0.98 1.31 1.36 1.17 0.92 0.91
0.51 0.53 0.54 0.49 0.47 0.46 0.44 0.44 0.49 0.54 0.71 0.74 0.75 0.74 0.94 1.04 1.02 1.03 0.92 1.00 1.13 1.15 1.11 1.10 1.08 0.98 0.93 0.95 0.91 0.91 0.89 0.73 0.72 0.71 0.72 0.69 0.60 0.66 1.00 1.34 1.31 1.13 1.13
0.44 0.44 0.48 0.54 0.59 0.57 0.57 0.57 0.54 0.55 0.58 0.65 0.72 0.73 0.86 0.96 1.03 1.04 0.92 0.95 1.08 1.25 1.21 1.13 1.06 1.03 0.88 0.83 0.91 0.95 0.96 0.84 0.80 0.85 0.78 0.77 0.62 0.59 0.79 1.23 1.45 1.33 1.34
0.34 0.33 0.39 0.45 0.52 0.58 0.62 0.66 0.62 0.66 0.67 0.65 0.70 0.68 0.73 0.88 1.04 1.12 1.03 0.98 1.13 1.30 1.44 1.46 1.28 1.18 1.05 0.96 1.00 0.98 0.93 0.96 0.92 0.86 0.83 0.87 0.81 0.68 0.72 0.89 1.22 1.50 1.58
0.27 0.26 0.29 0.34 0.41 0.48 0.57 0.65 0.67 0.69 0.83 0.91 0.79 0.65 0.72 0.85 0.96 1.17 1.24 1.19 1.22 1.37 1.41 1.43 1.41 1.24 1.20 1.15 1.03 0.96 0.88 0.91 0.96 0.81 0.83 0.89 0.94 0.85 0.81 0.67 0.73 0.95 1.28
0.24 0.23 0.25 0.31 0.33 0.36 0.47 0.64 0.73 0.70 0.80 1.01 1.05 1.01 1.05 1.12 1.18 1.34 1.42 1.40 1.40 1.45 1.41 1.52 1.67 1.44 1.27 1.28 1.18 1.02 0.91 0.87 0.88 0.85 0.87 0.89 0.98 0.96 0.90 0.75 0.68 0.54 0.74
0.18 0.19 0.24 0.29 0.32 0.34 0.42 0.53 0.62 0.72 0.90 1.11 1.17 1.22 1.35 1.37 1.40 1.54 1.63 1.65 1.58 1.49 1.52 1.68 2.00 1.88 1.52 1.36 1.40 1.27 1.05 0.92 0.95 0.87 0.90 0.98 0.98 0.98 1.05 0.97 0.81 0.74 0.64
0.10 0.12 0.18 0.27 0.36 0.42 0.48 0.62 0.77 1.00 1.11 1.25 1.40 1.39 1.41 1.46 1.49 1.57 1.78 1.88 1.81 1.77 1.85 1.85 2.04 2.18 1.93 1.70 1.66 1.83 1.61 1.34 0.98 0.78 0.83 0.90 0.97 1.06 1.04 1.08 1.00 0.90 0.87
0.09 0.11 0.18 0.32 0.51 0.72 0.82 1.05 1.33 1.58 1.66 1.58 1.57 1.61 1.59 1.63 1.70 1.66 1.77 1.98 1.94 1.88 1.88 2.04 2.27 2.51 2.47 2.24 1.99 2.07 1.82 1.61 1.47 0.97 0.75 0.83 0.93 1.04 1.06 1.16 1.17 1.06 1.02
0.13 0.22 0.38 0.62 0.92 1.17 1.32 1.52 1.72 1.83 1.87 1.80 1.81 1.79 1.77 1.69 1.62 1.61 1.72 1.93 2.06 2.14 2.17 2.23 2.22 2.49 2.68 2.53 2.43 2.13 1.84 1.71 1.78 1.53 1.04 0.81 0.86 0.93 0.98 1.02 1.12 1.18 1.16
0.40 0.59 0.88 1.14 1.38 1.53 1.58 1.68 1.88 2.03 2.19 2.20 2.08 1.93 1.82 1.78 1.70 1.61 1.66 1.74 1.78 1.86 1.97 2.10 2.18 2.37 2.47 2.60 2.59 2.42 2.18 2.00 1.57 1.54 1.53 1.25 1.01 0.82 0.84 0.96 1.12 1.20 1.22
0.83 1.01 1.22 1.37 1.51 1.51 1.52 1.58 1.71 1.90 2.06 2.08 2.09 2.05 1.92 1.78 1.67 1.58 1.53 1.64 1.66 1.66 1.78 1.91 2.00 2.21 2.36 2.47 2.53 2.41 2.25 2.18 1.93 1.67 1.52 1.48 1.36 1.04 0.86 0.87 0.97 1.08 1.16